DELTA 1 DEB, 10644

Orbit data source: Space-Track

DELTA 1 DEB, 10644 is space debris in SSO originally from a launch on Thu, 29 Jul 1976 UTC launched from the Air Force Western Test Range (AFWTR). Debris objects in space refer to the collection of defunct objects orbiting the Earth. Examples of debris include non-operational satellites, rocket bodies, and fragments generated from explosions, collisions, or faulty payload assembly.

Loading next visibility...
Identifier
10644, 1976-077E
Orbit
SSO
Country
Flag of USUS
Related business
Manufacturer
Unknown
Mission
Spacecraft
Bus & Motor
Unknown
Mass
Unknown
Launch date (UTC)
1976-07-29 (50 years ago)
Launch vehicle
Unknown
Launch site
Air Force Western Test Range (AFWTR)
Object type
Payload
Rocket body
Debris
Shape & HBR
Unknown shape, 0.1 m
Radar Cross Section
Small (<0.1 m²)

Expand to show TLE details & history
Last TLE update: 2 days ago

TLE from 2 days ago
0 DELTA 1 DEB
1 10644U 76077E   26117.17784913  .00000187  00000-0  12683-2 0  9997
2 10644 101.3724  84.9813 0107113 118.7337 261.8271 12.61813003288304
Epoch: 2026-04-27T04:16Z
TLE epoch observation values (Epoch: 2026-04-27T04:16:06.164Z)
Latitude
18.95318°
Longitude
161.84321°
Altitude
1,430.347 km
Speed
7.142 km/s
True Right ascension
05h 24m 09s
True Declination
18° 51' 25"
Sunlit
Object was in daylight at epoch
Visualization orbit readout
Latitude
Unknown
Longitude
Unknown
Altitude
Unknown
Speed
Unknown
Apparent Right ascension
Unknown
Apparent Declination
Unknown
Sunlit
N/A
Visualization observer readout
Local Sidereal Time
13:03:24
Azimuth
Unknown
Elevation
Unknown
Doppler factor
Unknown
Orbital elements
Apogee altitude
1,496.432 km
Perigee altitude
1,329.526 km
Semi-major axis
7,791.116 km
Eccentricity
0.01071
Inclination
101.3724°
RAAN
84.9813°
Arg. of periapsis
118.7337°
True anomaly
260.61454°
Mean anomaly
261.8271°
Eccentric anomaly
261.22058°
Mean motion
3.15605 °/min
Orbital period
114.07 mins
BSTAR
0.0012683
Loading maneuver chart data...
Computing Atmospheric mass density...
Loading historical data...
Loading historical data...
Loading historical data...
Loading historical data...
Loading historical data...
Loading historical data...
Loading historical data...

Documentation

Showing up to 5 results
|